Regional Weather Roundup
Issued by NWS Sterling, VA

Home | Current Version | Previous Version | Graphics & Text | Print | Product List | Glossary On
Versions: 1 2 3 4 5 6 7 8 9 10 11 12 13 14 15 16 17 18 19 20 21 22 23 24 25 26 27 28 29 30 31 32 33 34 35 36 37 38 39 40 41 42 43 44 45 46 47 48 49 50
000
ASUS41 KLWX 021610
RWRLWX

REGIONAL WEATHER ROUNDUP
NATIONAL WEATHER SERVICE BALTIMORE MD/WASHINGTON DC
1200 PM EDT TUE SEP 02 2014

Note: "FAIR" indicates few or no clouds below 12,000 feet
with no significant weather and/or obstructions to visibility.
 TC=TEMPERATURE CELSIUS

 * =Non NWS site. Station does not report precipitation (e.g. rain,
    snow, etc.), thunder, or fog.

DCZ001-MDZ009-015-VAZ040>042-051-053>054-021700-
WASHINGTON METRO

CITY           SKY/WX    TMP DP  RH WIND       PRES   REMARKS
WASHINGTON NAT MOSUNNY   92  67  43 S6        29.97F HX  95
DULLES         MOSUNNY   88  70  55 S8        29.98R HX  93
ANDREWS AFB    SUNNY     90  70  51 SW7       29.98F HX  96
QUANTICO       SUNNY     86  76  71 S9        29.98F HX  96
COLLEGE PARK*  MOSUNNY   90  68  48 W5        29.97F HX  93
LEESBURG*      MOSUNNY   88  72  58 SW5       29.99F HX  94
MANASSAS*      SUNNY     90  70  51 SW5       29.98F HX  95
GAITHERSBURG*  MOSUNNY   86  72  62 NW10      30.02F HX  92

$$

MDZ006>007-011-014-021700-
BALTIMORE METRO

CITY           SKY/WX    TMP DP  RH WIND       PRES   REMARKS
BWI AIRPORT    MOSUNNY   89  70  53 W10       29.96F HX  94
MD SCIENCE CTR   N/A     91  67  44 MISG      29.96F HX  94
MARTIN STATE   MOSUNNY   90  72  55 W9        29.98  HX  96
ANNAPOLIS      PTSUNNY   89  69  51 W9        29.96F HX  93
FORT MEADE*    SUNNY     88  70  55 W7        29.99F HX  92

$$

MDZ012-015-019>023-021700-
MARYLAND EASTERN SHORE

CITY           SKY/WX    TMP DP  RH WIND       PRES   REMARKS
OCEAN CITY     SUNNY     90  76  63 S6        29.97F HX 101
SALISBURY      SUNNY     93  71  48 VRB3      29.97F HX 100
BAY BRIDGE AP*   N/A     88  68  51 W5        29.97F HX  91
CAMBRIDGE*     SUNNY     91  70  49 CALM      29.97F HX  97
EASTON*        MOSUNNY   91  72  52 SW6       30.01  HX  98

$$

MDZ017>025-021700-
SOUTHERN MARYLAND

CITY           SKY/WX    TMP DP  RH WIND       PRES   REMARKS
PATUXENT RIVER PTSUNNY   92  67  43 W9        29.98S HX  95
ST INIGOES     MOSUNNY   88  71  57 VRB3      29.98F HX  94
LEONARDTOWN*   PTSUNNY   88  68  51 SW8       30.00F HX  91

$$

MDZ003>005-021700-
NORTH CENTRAL MARYLAND

CITY           SKY/WX    TMP DP  RH WIND       PRES   REMARKS
FREDERICK*     PTSUNNY   90  68  48 W7G16     30.00F HX  93
HAGERSTOWN APT PTSUNNY   85  68  56 VRB6      29.98F
WESTMINSTER*   MOSUNNY   84  72  65 W7        29.99F

$$

MDZ501>502-021700-
WESTERN MARYLAND

CITY           SKY/WX    TMP DP  RH WIND       PRES   REMARKS
OAKLAND*       CLOUDY    72 N/A N/A W10G18    30.09F
CUMBERLAND*    MOSUNNY   88  68  51 CALM      30.02S HX  91

$$

VAZ025>031-021700-
SHENANDOAH VALLEY

CITY           SKY/WX    TMP DP  RH WIND       PRES   REMARKS
WINCHESTER*    PTSUNNY   86  66  51 S5        29.99S
STAUNTON*      MOSUNNY   89  63  42 W8G16     30.05F

$$

WVZ021-048>050-054>055-021700-
EASTERN WEST VIRGINIA PANHANDLE

CITY           SKY/WX    TMP DP  RH WIND       PRES   REMARKS
MARTINSBURG    PTSUNNY   87  65  47 W9        29.98F
PETERSBURG*    NOT AVBL

$$

VAZ036>039-050-021700-
CENTRAL FOOTHILLS

CITY           SKY/WX    TMP DP  RH WIND       PRES   REMARKS
CHARLOTTESVILL MOSUNNY   89  69  51 CALM      30.01F HX  93
ORANGE*        SUNNY     90  68  48 S9        30.01F HX  93

$$

VAZ055>057-021700-
NORTH AND CENTRAL PIEDMONT

CITY           SKY/WX    TMP DP  RH WIND       PRES   REMARKS
FREDERICKSBRG* SUNNY     91  68  46 SW9       29.98F HX  94
STAFFORD*      SUNNY     88  72  59 SW5       30.02F HX  95

$$

NCZ024-NYZ072-PAZ021-071-VAZ022-071-021700-
OTHER REGIONAL OBSERVATIONS

CITY           SKY/WX    TMP DP  RH WIND       PRES   REMARKS
NEW YORK CITY  SUNNY     88  70  55 VRB3      29.93F HX  93
PHILADELPHIA   PTSUNNY   89  69  51 W9        29.94F HX  93
PITTSBURGH     CLOUDY    77  69  76 SW7       29.96F
ROANOKE        MOSUNNY   86  68  54 SW12      30.08F
RICHMOND       MOSUNNY   95  66  38 W7        30.00F HX  98
RALEIGH        MOSUNNY   90  72  55 SW10      30.07F HX  97

$$

ANZ530>537-021700-
MARINE OBSERVATIONS

STATION/POSITION TIME  TEMP    WIND        PRES
                       AIR SEA DIR/SP/G
                 (UTC) (F)     (DEG/KT/KT) (MB)
THOMAS PT LIGHT  1600   82 80  170/  7/  8 1015.7F
BALT KEY BRIDGE  1600          240/ 10/ 12 1014.7S
COVE POINT       1600   89     300/  3/  5 1015.1F
LEWISETTA        1600   88 81  270/  7/  9 1014.9F
SOLOMONS ISLAND  1600      80                N/A
PINEY POINT      1600             CALM       N/A

$$



USA.gov is the U.S. government's official web portal to all federal, state and local government web resources and services.